TimePDT,TemperatureF,Dew PointF,Humidity,Sea Level PressureIn,VisibilityMPH,Wind Direction,Wind SpeedMPH,Gust SpeedMPH,PrecipitationIn,Events,Conditions,WindDirDegrees,DateUTC
12:15 AM,44.6,37.4,76,30.16,10.0,WSW,5.8,-,N/A,,Overcast,240,2013-04-14 07:15:00
12:35 AM,44.6,39.2,81,30.16,7.0,WSW,4.6,-,N/A,,Light Drizzle,240,2013-04-14 07:35:00
12:55 AM,42.8,39.2,87,30.16,7.0,East,3.5,-,0.01,Rain,Light Rain,80,2013-04-14 07:55:00
1:15 AM,41.0,39.2,93,30.16,10.0,SE,3.5,-,N/A,,Mostly Cloudy,140,2013-04-14 08:15:00
1:35 AM,41.0,39.2,93,30.16,10.0,Calm,Calm,-,N/A,,Overcast,0,2013-04-14 08:35:00
1:55 AM,41.0,39.2,93,30.15,10.0,Calm,Calm,-,N/A,,Overcast,0,2013-04-14 08:55:00
2:15 AM,41.0,41.0,100,30.15,7.0,NW,3.5,-,N/A,,Light Drizzle,310,2013-04-14 09:15:00
2:35 AM,42.8,39.2,87,30.14,7.0,Calm,Calm,-,N/A,,Overcast,0,2013-04-14 09:35:00
2:55 AM,41.0,39.2,93,30.14,10.0,Calm,Calm,-,N/A,,Overcast,0,2013-04-14 09:55:00
3:15 AM,41.0,39.2,93,-9999,10.0,Calm,Calm,-,N/A,,Overcast,0,2013-04-14 10:15:00
3:35 AM,41.0,39.2,93,30.13,10.0,Calm,Calm,-,N/A,Rain,Light Rain,0,2013-04-14 10:35:00
3:55 AM,42.8,41.0,93,30.12,5.0,NNW,3.5,-,0.04,Rain,Rain,340,2013-04-14 10:55:00
4:15 AM,41.0,39.2,93,30.12,7.0,ESE,4.6,-,N/A,,Light Drizzle,110,2013-04-14 11:15:00
4:35 AM,41.0,39.2,93,30.12,10.0,Calm,Calm,-,N/A,,Overcast,0,2013-04-14 11:35:00
5:15 AM,41.0,39.2,93,30.11,10.0,Calm,Calm,-,N/A,,Overcast,0,2013-04-14 12:15:00
5:35 AM,41.0,39.2,93,30.10,10.0,SSE,4.6,-,N/A,,Overcast,150,2013-04-14 12:35:00
5:55 AM,41.0,39.2,93,30.09,10.0,SSE,4.6,-,N/A,,Overcast,150,2013-04-14 12:55:00
6:15 AM,41.0,39.2,93,30.09,10.0,SE,3.5,-,N/A,,Overcast,140,2013-04-14 13:15:00
6:35 AM,41.0,39.2,93,-9999,10.0,ESE,3.5,-,N/A,,Overcast,120,2013-04-14 13:35:00
6:55 AM,41.0,39.2,93,30.08,10.0,SE,3.5,-,N/A,,Overcast,140,2013-04-14 13:55:00
7:15 AM,41.0,39.2,93,30.08,10.0,SE,3.5,-,N/A,,Overcast,140,2013-04-14 14:15:00
7:35 AM,41.0,39.2,93,30.08,10.0,SSE,5.8,-,N/A,,Overcast,150,2013-04-14 14:35:00
7:55 AM,41.0,39.2,93,30.08,10.0,South,8.1,-,N/A,,Overcast,170,2013-04-14 14:55:00
8:15 AM,41.0,39.2,93,30.08,10.0,SSE,4.6,-,N/A,,Overcast,150,2013-04-14 15:15:00
8:35 AM,41.0,39.2,93,30.07,10.0,SSE,4.6,-,N/A,,Overcast,150,2013-04-14 15:35:00
8:55 AM,41.0,39.2,93,30.07,10.0,South,5.8,-,N/A,,Overcast,170,2013-04-14 15:55:00
9:15 AM,42.8,39.2,87,30.07,10.0,South,8.1,-,N/A,,Overcast,170,2013-04-14 16:15:00
9:35 AM,42.8,39.2,87,30.07,10.0,SSE,9.2,-,N/A,,Mostly Cloudy,160,2013-04-14 16:35:00
9:55 AM,42.8,39.2,87,30.06,10.0,SSE,8.1,-,N/A,,Light Drizzle,150,2013-04-14 16:55:00
10:15 AM,42.8,39.2,87,30.07,10.0,NNW,9.2,-,N/A,Rain,Light Rain,340,2013-04-14 17:15:00
10:35 AM,41.0,37.4,87,30.07,5.0,Calm,Calm,-,0.01,Rain,Rain,0,2013-04-14 17:35:00
10:55 AM,42.8,39.2,87,30.07,5.0,SSW,3.5,-,0.01,Rain,Light Rain,210,2013-04-14 17:55:00
11:15 AM,42.8,39.2,87,30.06,7.0,South,6.9,-,N/A,Rain,Rain,190,2013-04-14 18:15:00
11:35 AM,42.8,39.2,87,30.06,10.0,South,5.8,-,N/A,Rain,Light Rain,190,2013-04-14 18:35:00
11:55 AM,44.6,39.2,81,30.07,10.0,SSW,5.8,-,N/A,Rain,Rain,210,2013-04-14 18:55:00
12:15 PM,42.8,39.2,87,30.06,7.0,SW,5.8,-,N/A,Rain,Light Rain,220,2013-04-14 19:15:00
12:35 PM,44.6,41.0,87,30.06,5.0,SSW,6.9,-,N/A,,Light Drizzle,200,2013-04-14 19:35:00
12:55 PM,44.6,41.0,87,30.06,10.0,SSW,8.1,-,N/A,,Light Drizzle,210,2013-04-14 19:55:00
1:15 PM,44.6,41.0,87,30.05,7.0,SW,6.9,-,N/A,,Light Drizzle,230,2013-04-14 20:15:00
1:35 PM,44.6,41.0,87,30.05,10.0,SW,10.4,-,N/A,,Overcast,230,2013-04-14 20:35:00
1:55 PM,44.6,41.0,87,-9999,10.0,SW,6.9,-,N/A,,Light Drizzle,220,2013-04-14 20:55:00
2:15 PM,44.6,39.2,81,30.04,10.0,SSW,5.8,-,N/A,,Overcast,210,2013-04-14 21:15:00
2:35 PM,46.4,39.2,76,30.05,10.0,West,8.1,-,N/A,,Overcast,260,2013-04-14 21:35:00
2:55 PM,46.4,39.2,76,30.04,10.0,WSW,5.8,-,N/A,,Overcast,240,2013-04-14 21:55:00
3:15 PM,46.4,39.2,76,30.04,10.0,West,8.1,-,N/A,,Mostly Cloudy,280,2013-04-14 22:15:00
3:35 PM,46.4,39.2,76,30.03,10.0,West,6.9,-,N/A,,Overcast,270,2013-04-14 22:35:00
3:55 PM,46.4,39.2,76,30.03,10.0,WNW,9.2,-,N/A,,Overcast,290,2013-04-14 22:55:00
4:15 PM,46.4,39.2,76,30.02,10.0,WNW,8.1,-,N/A,,Scattered Clouds,300,2013-04-14 23:15:00
4:35 PM,46.4,39.2,76,30.02,10.0,NW,8.1,-,N/A,,Mostly Cloudy,310,2013-04-14 23:35:00
4:55 PM,48.2,41.0,76,30.02,10.0,WNW,8.1,-,N/A,,Mostly Cloudy,290,2013-04-14 23:55:00
5:15 PM,46.4,39.2,76,30.02,10.0,WNW,6.9,-,N/A,,Mostly Cloudy,300,2013-04-15 00:15:00
5:35 PM,44.6,39.2,81,30.01,10.0,WNW,6.9,-,N/A,,Mostly Cloudy,290,2013-04-15 00:35:00
5:55 PM,46.4,37.4,71,30.01,10.0,WNW,6.9,-,N/A,,Overcast,290,2013-04-15 00:55:00
6:15 PM,44.6,37.4,76,30.02,10.0,WNW,8.1,-,N/A,,Mostly Cloudy,290,2013-04-15 01:15:00
6:35 PM,44.6,37.4,76,30.02,10.0,NW,5.8,-,N/A,,Mostly Cloudy,310,2013-04-15 01:35:00
6:55 PM,46.4,37.4,71,30.02,10.0,NW,8.1,-,N/A,,Overcast,310,2013-04-15 01:55:00
7:15 PM,44.6,37.4,76,30.02,10.0,NW,5.8,-,N/A,,Overcast,320,2013-04-15 02:15:00
7:35 PM,44.6,37.4,76,30.02,10.0,North,5.8,-,N/A,,Overcast,350,2013-04-15 02:35:00
7:55 PM,44.6,37.4,76,30.01,10.0,NNW,6.9,-,N/A,,Overcast,340,2013-04-15 02:55:00
8:15 PM,42.8,37.4,81,30.02,10.0,North,8.1,-,N/A,,Overcast,350,2013-04-15 03:15:00
8:35 PM,42.8,37.4,81,30.02,10.0,Calm,Calm,-,N/A,,Overcast,0,2013-04-15 03:35:00
8:55 PM,42.8,37.4,81,30.03,10.0,Calm,Calm,-,N/A,,Overcast,0,2013-04-15 03:55:00
9:15 PM,42.8,37.4,81,-9999,10.0,Calm,Calm,-,N/A,,Mostly Cloudy,0,2013-04-15 04:15:00
9:35 PM,41.0,37.4,87,30.03,10.0,Calm,Calm,-,N/A,,Mostly Cloudy,0,2013-04-15 04:35:00
9:55 PM,41.0,37.4,87,30.03,10.0,Calm,Calm,-,N/A,,Scattered Clouds,0,2013-04-15 04:55:00
10:15 PM,39.2,35.6,87,30.03,10.0,Calm,Calm,-,N/A,,Clear,0,2013-04-15 05:15:00
10:35 PM,37.4,35.6,93,30.03,10.0,Calm,Calm,-,N/A,,Mostly Cloudy,0,2013-04-15 05:35:00
10:55 PM,41.0,37.4,87,30.03,10.0,Calm,Calm,-,N/A,,Overcast,0,2013-04-15 05:55:00
11:15 PM,41.0,37.4,87,30.03,10.0,NE,4.6,-,N/A,,Mostly Cloudy,40,2013-04-15 06:15:00
11:35 PM,41.0,37.4,87,30.03,10.0,Calm,Calm,-,N/A,,Mostly Cloudy,0,2013-04-15 06:35:00
11:55 PM,37.4,35.6,93,30.03,10.0,Calm,Calm,-,N/A,,Mostly Cloudy,0,2013-04-15 06:55:00